Airfield :
LOGIN :

Register | Disclaimer

   EN    FR    IT 

 










Legend :    VFR   Marginal VFR   IFR   Intensive IFR   Very Intensive IFR
Visi :
Ceiling :
>= 8 km
>= 3000ft
5 to 8 km
1000 to 3000 ft
1500m to 5 km
500 to 1000 ft
800 to 1500m
200 to 500 ft
< 800m
< 200 ft
Symbols :   Thunderstorms  Fog  Heavy snow  Heavy precipitations  Wind > 20 kt
SIGMETs :     Misc.  Thunderstorms  Icing  Turbulence  Mountain Waves  Volcanic Ashes






- Airport Elevation : 158 ft
- IATA code : QAR


EHDL - Deelen Airbase

CURRENT METAR :
  • 010325Z AUTO 09006KT 030V170 5000 BR OVC006 04/04 Q1034 YLO

EXPIRED METARs :
  • 010255Z AUTO 08006KT 360V160 6000 BR OVC006 04/04 Q1034 YLO
  • 010225Z AUTO 06009KT 320V130 4200 BR SCT004 OVC005 04/04 Q1035 YLO
  • 010155Z AUTO VRB05KT 3800 BR OVC003 04/04 Q1035 YLO
  • 010125Z AUTO 07007KT 360V150 3500 BR OVC003 04/04 Q1035 YLO
  • 010055Z AUTO VRB07KT 3800 BR OVC003 04/04 Q1035 YLO

Expired Forecast.



MET'MAP, your aeronautical weather chart ! - Copyright ORBIFLY December 2007 - Disclaimer

ORBIFLY MET'MAP TEAM :

Programming & Development : Alexandra Zaïnal
Concept & original design : Baudouin d'Aumeries
Assistance for programming : Marc-Olivier Méhu
Technical & hardware support : Manuel Goepfert

Contact : metmap@orbifly.com




SOURCES & CREDITS :

   NOAA